This is the latest recevied weather packets stored in our database for station/object WA1TYB-13. If no packets are shown the sender has not sent any weather packets the latest 1 day(s).
| Time | Temp. | Humidity | Pressure | Rain* | Wind** | Luminosity | Snow |
|---|---|---|---|---|---|---|---|
| 1778021131 | 8.33° C | 42% | 1019.5 hPa | 0 mm | 3.58 m/s, 313° | 116 W/m² | - |
| 1778020828 | 8.33° C | 42% | 1019.6 hPa | 0 mm | 3.13 m/s, 17° | 255 W/m² | - |
| 1778020525 | 8.89° C | 40% | 1019.5 hPa | 0 mm | 3.13 m/s, 6° | 223 W/m² | - |
| 1778020221 | 9.44° C | 41% | 1019.7 hPa | 0 mm | 4.47 m/s, 351° | 283 W/m² | - |
| 1778019918 | 8.33° C | 44% | 1019.5 hPa | 0 mm | 3.13 m/s, 42° | 294 W/m² | - |
| 1778019614 | 8.33° C | 44% | 1019.4 hPa | 0 mm | 4.02 m/s, 2° | 266 W/m² | - |
| 1778019311 | 8.89° C | 46% | 1019.3 hPa | 0 mm | 4.92 m/s, 2° | 265 W/m² | - |
| 1778019008 | 8.89° C | 43% | 1019.3 hPa | 0 mm | 5.81 m/s, 10° | 429 W/m² | - |
| 1778018705 | 8.89° C | 43% | 1019.7 hPa | 0 mm | 4.92 m/s, 357° | 412 W/m² | - |
| 1778018402 | 8.33° C | 45% | 1019.1 hPa | 0 mm | 5.36 m/s, 41° | 315 W/m² | - |
| 1778018101 | 8.89° C | 43% | 1019.3 hPa | 0 mm | 3.13 m/s, 350° | 273 W/m² | - |
| 1778017798 | 8.33° C | 43% | 1019.3 hPa | 0 mm | 5.36 m/s, 328° | 303 W/m² | - |
| 1778017496 | 9.44° C | 42% | 1019.5 hPa | 0 mm | 7.15 m/s, 19° | 401 W/m² | - |
| 1778017193 | 9.44° C | 40% | 1019.3 hPa | 0 mm | 3.58 m/s, 64° | 369 W/m² | - |
| 1778016891 | 8.89° C | 38% | 1019.3 hPa | 0 mm | 4.02 m/s, 8° | 324 W/m² | - |
| 1778016586 | 9.44° C | 37% | 1019.3 hPa | 0 mm | 4.02 m/s, 16° | 476 W/m² | - |
| 1778016283 | 9.44° C | 38% | 1019.5 hPa | 0 mm | 4.47 m/s, 345° | 507 W/m² | - |
| 1778015979 | 8.89° C | 42% | 1019.4 hPa | 0 mm | 4.92 m/s, 18° | 327 W/m² | - |
| 1778015677 | 8.89° C | 36% | 1019.4 hPa | 0 mm | 3.58 m/s, 3° | 315 W/m² | - |
| 1778015373 | 8.89° C | 41% | 1019.3 hPa | 0 mm | 3.58 m/s, 358° | 321 W/m² | - |
| 1778015071 | 8.89° C | 42% | 1019.3 hPa | 0 mm | 4.92 m/s, 46° | 350 W/m² | - |
| 1778014767 | 10° C | 43% | 1019.3 hPa | 0 mm | 3.58 m/s, 22° | 375 W/m² | - |
| 1778014466 | 10° C | 41% | 1019.3 hPa | 0 mm | 4.47 m/s, 16° | 479 W/m² | - |
| 1778014162 | 9.44° C | 40% | 1019.5 hPa | 0 mm | 6.26 m/s, 17° | 582 W/m² | - |
| 1778013860 | 9.44° C | 39% | 1019.1 hPa | 0 mm | 4.92 m/s, 357° | 503 W/m² | - |
* Rain latest hour (hover to see other rain measurements)
** Current wind speed in m/s (hover to see current wind gust speed)